[[{"header":{"parameterUnit":"m.s-1","parameterCategory":1,"la1":30.2991,"la2":30.254,"lo1":-89.0895,"lo2":-89.0444,"dy":0.0017,"dx":0.0017,"nx":28,"ny":28,"refTime":"2024-12-12T03:00:00:Z","depth":0,"parameterNumber":2,"parameterNumberName":"U-component_of_WINDS"},"data":[0,0,0,0,0,0,0,0,0,0,0,0,0,0,0,0,0,0,0,0,0,0,0,0,0,0,0,0,0,0,0,0,0,0,0,0,0,0,0,0,0,0,0,0,0,0,0,0,0,0,0,0,0,0,0,0,0,0,-1.8491,-1.8491,0,-1.8559,-1.8559,-1.856,-1.846,-1.8457,-1.8453,-1.845,-1.8523,-1.8528,-1.8533,0,0,0,0,0,0,0,0,0,0,0,0,0,-1.8277,-1.8282,-1.8491,-1.8492,-1.8492,-1.8558,-1.8559,-1.856,-1.8461,-1.8457,-1.8452,-1.8448,-1.8521,-1.8528,-1.8534,0,0,0,0,0,0,0,0,0,0,0,0,0,-1.836,-1.8283,-1.8491,-1.8451,-1.8448,-1.8558,-1.8559,-1.8561,-1.8462,-1.8456,-1.8451,-1.8446,-1.8519,-1.8527,-1.8535,-1.8689,0,0,-1.8559,-1.8562,0,0,0,0,0,0,0,0,-1.8356,-1.8368,-1.8456,-1.8454,-1.845,-1.8495,-1.8511,-1.8604,-1.8463,-1.8457,-1.845,-1.8444,-1.8518,-1.8526,-1.855,-1.8692,-1.8695,-1.8559,-1.8564,-1.8567,-1.857,0,0,0,0,0,0,0,-1.835,-1.8365,-1.8518,-1.8457,-1.8454,-1.843,-1.8436,-1.8528,-1.8516,-1.8457,-1.845,-1.8459,-1.8516,-1.8543,-1.8551,-1.8696,-1.8559,-1.8566,-1.8571,-1.8574,-1.8968,-1.8974,0,0,0,0,0,0,-1.8349,-1.8361,-1.8515,-1.852,-1.8389,-1.8438,-1.8445,-1.8486,-1.8515,-1.8514,-1.8463,-1.8454,-1.8532,-1.8542,-1.8554,-1.8737,-1.8567,-1.8575,-1.8579,-1.8963,-1.897,-1.8976,0,0,0,0,0,0,-1.8345,-1.8364,-1.8513,-1.8438,-1.8455,-1.8447,-1.8495,-1.8491,-1.8518,-1.852,-1.8518,-1.8493,-1.8529,-1.8543,-1.8656,-1.8738,-1.8578,-1.8585,-1.8956,-1.8965,-1.8973,-1.9105,0,0,0,0,0,0,-1.8339,-1.8363,-1.8421,-1.844,-1.846,-1.8614,-1.85,-1.8496,-1.8531,-1.8519,-1.8547,-1.8547,-1.8525,-1.8645,-1.8664,-1.8746,-1.8592,-1.8949,-1.896,-1.897,-1.9094,-1.9117,-1.9138,0,0,0,0,0,-1.8332,-1.8456,-1.8424,-1.8443,-1.8532,-1.8619,-1.863,-1.8602,-1.8538,-1.8597,-1.8598,-1.8546,-1.8725,-1.8657,-1.8678,-1.8764,-1.8943,-1.8957,-1.8969,-1.9084,-1.9113,-1.9137,0,0,0,0,0,0,-1.8448,-1.8458,-1.8423,-1.8557,-1.8587,-1.8601,-1.8675,-1.8633,-1.8684,-1.8671,-1.8634,-1.8642,-1.8763,-1.8774,-1.8698,-1.8915,-1.8824,-1.8842,-1.8904,-1.8931,-1.8953,-1.895,-1.8598,0,0,0,0,0,-1.8489,-1.8557,-1.8562,-1.868,-1.8697,-1.8684,-1.872,-1.8695,-1.8726,-1.8739,-1.8749,-1.8782,-1.8845,-1.8888,-1.8947,-1.9093,-1.9099,-1.9162,-1.9184,-1.9203,-1.922,-1.9299,-1.9328,-1.9019,-1.9018,-1.9018,0,0,-1.8575,-1.8588,-1.8634,-1.8704,-1.8725,-1.8798,-1.8695,-1.8777,-1.8831,-1.8752,-1.886,-1.8868,-1.8902,-1.9033,-1.9091,-1.9046,-1.9305,-1.9219,-1.9234,-1.9241,-1.9315,-1.9345,-1.9371,-1.9027,-1.9026,-1.9024,0,0,-1.8769,-1.8786,-1.8886,-1.8909,-1.8941,-1.8931,-1.8955,-1.8975,-1.8977,-1.9084,-1.9027,-1.909,-1.92,-1.9228,-1.9256,-1.9459,-1.9414,-1.9478,-1.9596,-1.9673,-1.9698,-1.9719,-1.9794,-1.9821,-1.9495,-1.9495,-1.9495,0,-1.8873,-1.898,-1.8944,-1.9029,-1.9062,-1.8992,-1.9094,-1.9118,-1.9168,-1.9193,-1.9141,-1.9278,-1.9295,-1.9432,-1.9482,-1.9506,-1.9534,-1.9477,-1.9697,-1.9718,-1.9738,-1.9809,-1.9837,-1.9503,-1.9502,-1.9501,-1.95,0,-1.9106,-1.9181,-1.9259,-1.9308,-1.9349,-1.9443,-1.9422,-1.9468,-1.9439,-1.9434,-1.9545,-1.9563,-1.9625,-1.9654,-1.9627,-1.9788,-1.9759,-1.9702,-1.9611,-1.9776,-1.9842,-1.9869,-1.9514,-1.9511,-1.9509,-1.9507,0,0,-1.938,-1.9406,-1.9436,-1.9458,-1.9487,-1.9545,-1.9635,-1.9694,-1.9735,-1.9771,-1.9847,-1.9941,-1.9889,-1.9921,-1.9896,-1.9964,-2.0126,-1.9899,-1.9899,-1.9943,-2.0306,-2.0351,-2.0383,-2.0094,-2.0099,-2.0103,-2.0304,0,-1.9576,-1.9732,-1.9701,-1.9854,-1.9923,-1.9856,-1.9935,-1.9962,-1.996,-2.0019,-2.0016,-2.0084,-2.0008,-2.0028,-2.0091,-2.0093,-2.0199,-2.0077,-2.0167,-2.0171,-2.0164,-2.0417,-2.0465,-2.0654,-2.0329,-2.0334,-2.0337,0,-1.9827,-1.9872,-2.0031,-2.0049,-2.0077,-2.0149,-2.02,-2.0257,-2.0286,-2.0279,-2.0315,-2.0276,-2.0367,-2.0271,-2.0397,-2.0315,-2.0349,-2.0355,-2.0361,-2.0372,-2.0266,-2.0437,-2.0713,-2.0743,-2.0377,-2.0373,-2.0371,0,-2.0014,-2.0114,-2.0222,-2.0242,-2.0266,-2.0318,-2.033,-2.0354,-2.0391,-2.0436,-2.046,-2.0515,-2.0546,-2.059,-2.0568,-2.05,-2.0698,-2.06,-2.0697,-2.0698,-2.0745,-2.0743,-2.1034,-2.0762,-2.0761,-2.0761,-2.076,0,-2.0238,-2.0339,-2.0306,-2.0374,-2.0485,-2.0448,-2.0559,-2.0564,-2.0585,-2.0653,-2.0597,-2.0662,-2.0627,-2.0689,-2.0672,-2.0779,-2.0793,-2.0792,-2.0787,-2.0799,-2.08,-2.0824,-2.0811,-2.0768,-2.0767,-2.0765,-2.0764,0,-2.0468,-2.045,-2.0564,-2.0576,-2.0581,-2.0663,-2.0673,-2.0737,-2.0728,-2.0815,-2.0833,-2.0821,-2.0892,-2.0872,-2.0949,-2.0937,-2.1074,-2.1051,-2.1065,-2.106,-2.1159,-2.1152,-2.1479,-2.1521,-2.1218,-2.1221,-2.1224,0,-2.0614,-2.069,-2.071,-2.075,-2.0767,-2.0833,-2.087,-2.0836,-2.0878,-2.0916,-2.0975,-2.104,-2.1091,-2.1206,-2.1205,-2.1264,-2.1243,-2.1353,-2.1252,-2.1262,-2.1248,-2.1246,-2.1254,-2.1375,-2.1379,-2.1382,-2.1384,0,-2.0877,-2.0864,-2.0919,-2.0972,-2.1018,-2.1058,-2.1093,-2.113,-2.1098,-2.1148,-2.1218,-2.1257,-2.1334,-2.1401,-2.1454,-2.1467,-2.1422,-2.1415,-2.1441,-2.1457,-2.1463,-2.1464,-2.1124,-2.1409,-2.1406,-2.1405,-2.1403,-2.1402,-2.1072,-2.1136,-2.116,-2.1224,-2.1246,-2.128,-2.134,-2.1339,-2.1397,-2.1457,-2.1433,-2.1515,-2.1541,-2.1607,-2.1627,-2.1691,-2.1649,-2.1686,-2.1696,-2.1707,-2.1721,-2.1449,-2.17,-2.1699,-2.1699,-2.1698,-2.1697,0,-2.1334,-2.1345,-2.1404,-2.1454,-2.1505,-2.1454,-2.149,-2.1536,-2.1609,-2.1637,-2.1687,-2.1768,-2.1832,-2.1835,-2.1894,-2.1945,-2.1926,-2.1962,-2.196,-2.1964,-2.1753,-2.1726,-2.1976,-2.1976,-2.1976,-2.1976,-2.1976,-2.1976,-2.1477,-2.1584,-2.1574,-2.1692,-2.1702,-2.1781,-2.1806,-2.1837,-2.1859,-2.1953,-2.2005,-2.2005,-2.2024,-2.2083,-2.2139,-2.2138,-2.2165,-2.221,-2.2202,-2.2006,-2.1978,-2.1952,-2.1927,-2.2215,-2.2215,-2.2407,-2.2409,-2.241]},{"header":{"parameterUnit":"m.s-1","parameterCategory":1,"la1":30.2991,"la2":30.254,"lo1":-89.0895,"lo2":-89.0444,"dy":0.0017,"dx":0.0017,"nx":28,"ny":28,"refTime":"2024-12-12T03:00:00:Z","depth":0,"parameterNumber":3,"parameterNumberName":"V-component_of_WINDS"},"data":[0,0,0,0,0,0,0,0,0,0,0,0,0,0,0,0,0,0,0,0,0,0,0,0,0,0,0,0,0,0,0,0,0,0,0,0,0,0,0,0,0,0,0,0,0,0,0,0,0,0,0,0,0,0,0,0,0,0,-4.0335,-4.0336,0,-4.0464,-4.0466,-4.0467,-4.0407,-4.0404,-4.0401,-4.0398,-4.0528,-4.0534,-4.0541,0,0,0,0,0,0,0,0,0,0,0,0,0,-4.0034,-4.004,-4.0335,-4.0337,-4.0338,-4.0464,-4.0466,-4.0468,-4.0408,-4.0404,-4.04,-4.0396,-4.0526,-4.0534,-4.0541,0,0,0,0,0,0,0,0,0,0,0,0,0,-4.0164,-4.0042,-4.0335,-4.0324,-4.0324,-4.0464,-4.0466,-4.0468,-4.0409,-4.0404,-4.0399,-4.0394,-4.0523,-4.0533,-4.0543,-4.07,0,0,-4.0572,-4.0577,0,0,0,0,0,0,0,0,-4.0157,-4.0175,-4.0324,-4.0325,-4.0325,-4.0415,-4.0408,-4.0546,-4.041,-4.0376,-4.0398,-4.0392,-4.0494,-4.0506,-4.0541,-4.0706,-4.0712,-4.0573,-4.0579,-4.0583,-4.0586,0,0,0,0,0,0,0,-4.0148,-4.017,-4.0386,-4.0326,-4.0327,-4.0312,-4.0325,-4.0434,-4.0461,-4.0379,-4.0375,-4.0391,-4.0494,-4.0532,-4.0544,-4.0714,-4.0573,-4.0582,-4.0588,-4.0591,-4.1014,-4.102,0,0,0,0,0,0,-4.014,-4.0162,-4.0382,-4.039,-4.0228,-4.0321,-4.0336,-4.0391,-4.046,-4.0465,-4.0395,-4.0388,-4.0517,-4.0532,-4.0548,-4.0737,-4.0583,-4.0592,-4.0598,-4.1009,-4.1016,-4.1021,0,0,0,0,0,0,-4.0133,-4.016,-4.0377,-4.0275,-4.0302,-4.0331,-4.0394,-4.0396,-4.0434,-4.0472,-4.0476,-4.0429,-4.0514,-4.0534,-4.0663,-4.0741,-4.0597,-4.0606,-4.1003,-4.1011,-4.1019,-4.1117,0,0,0,0,0,0,-4.0125,-4.0158,-4.0219,-4.0277,-4.0307,-4.0491,-4.0399,-4.0402,-4.0451,-4.0443,-4.0505,-4.0511,-4.0512,-4.0649,-4.0673,-4.0752,-4.0613,-4.0996,-4.1006,-4.1016,-4.1107,-4.1127,-4.1145,0,0,0,0,0,-4.0115,-4.0241,-4.0222,-4.0249,-4.0384,-4.0495,-4.0512,-4.0512,-4.0458,-4.0519,-4.0543,-4.0509,-4.0728,-4.0662,-4.0689,-4.0772,-4.0991,-4.1003,-4.1015,-4.1098,-4.1123,-4.1144,0,0,0,0,0,0,-4.019,-4.0248,-4.0228,-4.0377,-4.0432,-4.0485,-4.0562,-4.0538,-4.0609,-4.0598,-4.0594,-4.0608,-4.0742,-4.0769,-4.0695,-4.0928,-4.0851,-4.0869,-4.0905,-4.0929,-4.0948,-4.0939,-4.0621,0,0,0,0,0,-4.0225,-4.0311,-4.0356,-4.0483,-4.0512,-4.0532,-4.0581,-4.0576,-4.0632,-4.0654,-4.0688,-4.0743,-4.0824,-4.0878,-4.0955,-4.111,-4.1123,-4.118,-4.1199,-4.1215,-4.123,-4.1314,-4.134,-4.1061,-4.1061,-4.1061,0,0,-4.0296,-4.0338,-4.0393,-4.05,-4.0541,-4.063,-4.0552,-4.0649,-4.0715,-4.0669,-4.0793,-4.0819,-4.088,-4.1023,-4.1088,-4.105,-4.131,-4.123,-4.1242,-4.125,-4.1329,-4.1356,-4.1379,-4.107,-4.1068,-4.1067,0,0,-4.0471,-4.0512,-4.0622,-4.0666,-4.073,-4.0743,-4.0769,-4.0826,-4.0843,-4.0967,-4.0934,-4.1011,-4.1152,-4.1197,-4.1238,-4.143,-4.1401,-4.1455,-4.1555,-4.1637,-4.1659,-4.1678,-4.1747,-4.1772,-4.1471,-4.1471,-4.1471,0,-4.0552,-4.0685,-4.0682,-4.0782,-4.083,-4.0793,-4.0904,-4.0946,-4.1032,-4.1066,-4.1023,-4.1198,-4.1237,-4.1389,-4.1436,-4.1471,-4.1501,-4.1449,-4.1656,-4.1675,-4.1694,-4.1759,-4.1785,-4.1477,-4.1476,-4.1476,-4.1475,0,-4.0781,-4.0873,-4.0955,-4.1039,-4.1096,-4.1202,-4.1214,-4.1272,-4.1262,-4.1279,-4.1406,-4.145,-4.1536,-4.1571,-4.1562,-4.1723,-4.1698,-4.1656,-4.1579,-4.1726,-4.1788,-4.1813,-4.1486,-4.1484,-4.1482,-4.148,0,0,-4.1008,-4.109,-4.112,-4.1158,-4.1226,-4.1297,-4.14,-4.1484,-4.1534,-4.1594,-4.1681,-4.18,-4.1762,-4.1809,-4.1804,-4.1876,-4.2025,-4.1824,-4.1826,-4.1861,-4.2205,-4.2237,-4.2266,-4.2006,-4.2011,-4.2015,-4.22,0,-4.1189,-4.1371,-4.1371,-4.1538,-4.1624,-4.1589,-4.1679,-4.173,-4.1749,-4.1823,-4.1843,-4.1928,-4.1871,-4.1899,-4.1968,-4.1992,-4.2094,-4.1979,-4.2086,-4.209,-4.2073,-4.2298,-4.2333,-4.2506,-4.2224,-4.2228,-4.2231,0,-4.1424,-4.1493,-4.1669,-4.1725,-4.1761,-4.1842,-4.1919,-4.1991,-4.2047,-4.2056,-4.2108,-4.2093,-4.2197,-4.2116,-4.226,-4.2181,-4.2225,-4.2243,-4.225,-4.226,-4.217,-4.2315,-4.2561,-4.2587,-4.2269,-4.2266,-4.2263,0,-4.1573,-4.171,-4.1833,-4.1866,-4.1934,-4.1992,-4.2022,-4.2075,-4.2125,-4.2192,-4.2225,-4.2303,-4.2346,-4.2406,-4.2411,-4.2352,-4.2556,-4.2476,-4.2566,-4.2566,-4.2611,-4.2608,-4.2867,-4.2638,-4.2638,-4.2637,-4.2637,0,-4.1776,-4.1885,-4.1901,-4.1977,-4.2098,-4.2096,-4.2216,-4.2242,-4.2288,-4.2368,-4.2342,-4.2417,-4.242,-4.2496,-4.2501,-4.2619,-4.2639,-4.2648,-4.2648,-4.2651,-4.265,-4.268,-4.2668,-4.2644,-4.2643,-4.2641,-4.264,0,-4.1963,-4.1978,-4.211,-4.2163,-4.2179,-4.2266,-4.2311,-4.2383,-4.2399,-4.25,-4.2524,-4.2549,-4.2638,-4.2649,-4.2752,-4.2755,-4.2898,-4.2885,-4.2879,-4.2877,-4.2967,-4.2959,-4.3255,-4.3294,-4.3039,-4.3041,-4.3043,0,-4.2091,-4.2175,-4.2237,-4.2289,-4.2323,-4.2407,-4.2458,-4.246,-4.2514,-4.2585,-4.2649,-4.2735,-4.2805,-4.2948,-4.2975,-4.3054,-4.3043,-4.3141,-4.3055,-4.3055,-4.3045,-4.3041,-4.3049,-4.3158,-4.3161,-4.3164,-4.3165,0,-4.2318,-4.2321,-4.2397,-4.2476,-4.2538,-4.26,-4.2658,-4.2702,-4.271,-4.2773,-4.2864,-4.2918,-4.3024,-4.311,-4.3188,-4.3218,-4.3194,-4.3192,-4.3217,-4.3222,-4.3215,-4.322,-4.2926,-4.3186,-4.3184,-4.3182,-4.3181,-4.318,-4.248,-4.2553,-4.2608,-4.2693,-4.2737,-4.2792,-4.2862,-4.2887,-4.2963,-4.305,-4.3046,-4.3147,-4.32,-4.3303,-4.3339,-4.3417,-4.3384,-4.3421,-4.343,-4.3439,-4.3448,-4.3202,-4.3431,-4.343,-4.343,-4.3429,-4.3429,0,-4.2706,-4.274,-4.2818,-4.2901,-4.2968,-4.2939,-4.3001,-4.3059,-4.3148,-4.3201,-4.327,-4.3374,-4.3457,-4.3491,-4.3572,-4.3628,-4.3619,-4.3649,-4.3646,-4.3653,-4.3472,-4.3443,-4.3656,-4.3656,-4.3656,-4.3655,-4.3655,-4.3655,-4.2832,-4.2953,-4.2963,-4.3105,-4.3138,-4.3237,-4.3275,-4.3325,-4.3367,-4.3486,-4.3555,-4.3576,-4.3621,-4.3706,-4.378,-4.3788,-4.3819,-4.3855,-4.3858,-4.3689,-4.3666,-4.3644,-4.3616,-4.3862,-4.3862,-4.4032,-4.4034,-4.4035]}]]